Flag for U.S.A. Weather past 2 weeks in Myrtle Beach, South Carolina, U.S.A.

Now
73 °F

Partly cloudy.


Feels Like: 74 °F
Forecast: 74 / 83 °F
Wind: 8 mph from Northeast

Location: Myrtle Beach Air Force Base

Current Time: Jul 31, 2014 at 8:25:10 AM

Latest Report: Jul 31, 2014 at 6:45 AM


Visibility: 10 mi

Pressure: 30.05 "Hg

Humidity: 78%

Dew point: 66 °F

Location of Myrtle BeachLocation

Historic Weather in Myrtle Beach — Graph

°F

Myrtle Beach temperature yesterday

Maximum temperature yesterday: 84 °F (at 11:45 AM)
Minimum temperature yesterday: 72 °F (at 5:35 AM)
Average temperature yesterday: 77 °F

Past Weeks' High & Low Weather Summary

 TemperatureHumidityPressure
High95 °F (Jul 27, 3:45 PM)94% (Jul 16, 6:45 AM)30.15 "Hg (Jul 16, 6:45 AM)
Low70 °F (Jul 17, 6:45 AM)46% (Jul 29, 1:45 PM)29.77 "Hg (Jul 28, 4:45 PM)
Average79 °F77%30.00 "Hg
* Reported Jul 16 6:45 AM — Jul 31 6:45 AM, Myrtle Beach, Weather by CustomWeather, © 2014

Note: Actual official high and low records may vary slightly from our data, if they occured in-between our weather recording intervals... More about our weather records

Advertising

Myrtle Beach weather history for previous 24 hours

 ConditionsComfort  
Time TempWeatherWind HumidityBarometerVisibility
6:45 AM
Jul 31
73 °FPartly cloudy.8 mph78%30.05 "Hg10 mi
5:35 AM75 °FPartly cloudy.3 mph74%30.03 "Hg10 mi
5:15 AM79 °FPassing clouds.8 mph74%30.03 "Hg10 mi
4:55 AM81 °FPassing clouds.7 mph70%30.03 "Hg10 mi
4:35 AM79 °FPassing clouds.9 mph70%30.03 "Hg10 mi
4:15 AM79 °FPassing clouds.7 mph70%30.03 "Hg10 mi
3:55 AM79 °FPassing clouds.8 mph70%30.03 "Hg10 mi
3:35 AM81 °FPassing clouds.9 mph66%30.04 "Hg10 mi
3:15 AM81 °FPassing clouds.7 mph70%30.04 "Hg10 mi
2:55 AM81 °FPassing clouds.9 mph70%30.04 "Hg10 mi
2:35 AM81 °FPassing clouds.8 mph66%30.04 "Hg10 mi
2:15 AM81 °FPassing clouds.7 mph66%30.04 "Hg10 mi
1:55 AM81 °FPassing clouds.10 mph62%30.04 "Hg10 mi
1:35 AM81 °FPassing clouds.9 mph62%30.04 "Hg10 mi
1:15 AM81 °FClear.8 mph62%30.04 "Hg10 mi
12:55 AM81 °FPassing clouds.9 mph62%30.04 "Hg10 mi
12:35 AM81 °FPassing clouds.8 mph62%30.04 "Hg10 mi
12:15 AM81 °FPassing clouds.10 mph62%30.04 "Hg10 mi
11:55 PM
Jul 30
81 °FOvercast.13 mph62%30.04 "Hg10 mi
11:35 PM79 °FPassing clouds.9 mph65%30.05 "Hg10 mi
11:15 PM81 °FClear.8 mph62%30.05 "Hg10 mi
10:55 PM79 °FClear.7 mph65%30.05 "Hg10 mi
9:45 PM81 °FMostly cloudy.9 mph58%30.04 "Hg10 mi
8:45 PM81 °FPartly sunny.10 mph58%30.03 "Hg10 mi
6:45 PM82 °FPartly sunny.10 mph58%30.01 "Hg10 mi
5:48 PM82 °FPartly sunny.9 mph58%30.00 "Hg10 mi
4:45 PM82 °FPartly sunny.14 mph58%30.00 "Hg10 mi
3:45 PM84 °FPartly sunny.14 mph55%30.01 "Hg10 mi
1:50 PM84 °FBroken clouds.14 mph55%30.03 "Hg10 mi
12:45 PM84 °FScattered clouds.12 mph55%30.04 "Hg10 mi
11:45 AM84 °FPartly sunny.12 mph62%30.04 "Hg10 mi
10:45 AM82 °FPartly sunny.12 mph66%30.03 "Hg10 mi
9:45 AM82 °FScattered clouds.7 mph62%30.02 "Hg10 mi
8:45 AM81 °FPassing clouds.9 mph70%30.00 "Hg10 mi
Weather by CustomWeather, © 2014

See weather overviewHow to use our weather pages